www.pogodaiklimat.ru

Погода и климат >> Архив погоды >> Малайзия >> Kuantan


ПОГОДА в Kuantan

  • Прогноз погоды в Kuantan
  • Монитор погоды в Kuantan
  • Климат города

АРХИВ ПОГОДЫ в Kuantan

Время (UTC), дата Ветер
(напр.,м/с)
 
Видим.   Явления Облачность Т
(С)
Тd
(С)
f
(%)
Тe
(С)
Тes
(С)
Комфортность P
(гПа)
Po
(гПа)
Тmin
(С)
Tmax
(С)
R
(мм)
R24
(мм)
S
(см)
06 17.08 Ю 3 17 км мгла 8/4 540 м
[Cu hum Ac trans Ci fib]
+31.6 +27.4 78 +50 +57 опасность
перегрева
1007.7 1006.0
09 17.08 ЮВ 4 12 км мгла 9/4 500 м
[Cb cap Ac lent Ci sp]
+28.6 +26.1 86 +43 +45 опасность
перегрева
1006.2 1004.4
12 17.08 Ю 2 15 км зарница 9/4 500 м
[Cb cap Ac lent Ci sp]
+26.7 +25.3 92 +39 +39 очень
душно
1008.3 1006.5 +32.4
15 17.08 ЮЗ 3 12 км зарница 9/3 500 м
[Cb cap Ac trans Ci sp]
+26.0 +24.8 93 +37 +37 очень
душно
1010.1 1008.3
18 17.08 СЗ 2 12 км зарница 9/3 500 м
[Cb cap Ac trans Ci sp]
+24.4 +23.2 93 +33 +33 очень
душно
1009.0 1007.2
21 17.08 штиль 0 8000 м дымка 9/4 180 м
[Sc Ac lent Ci sp]
+24.0 +23.3 96 +32 +32 очень
душно
1008.1 1006.3
00 18.08 С 2 4000 м дымка 9/4 <50 м
[St Ac trans Cs]
+23.9 +23.4 97 +32 +33 очень
душно
1009.4 1007.6 +23.5
03 18.08 ЮЗ 3 8000 м мгла 9/1 570 м
[Cu hum Ac lent Cs]
+28.4 +25.9 86 +42 +49 опасность
перегрева
1010.7 1008.9
06 18.08 Ю 2 14 км мгла 9/4 540 м
[Cu med, cong Ac lent Ci sp]
+31.5 +26.4 74 +48 +55 опасность
перегрева
1008.8 1007.0
09 18.08 СВ 4 2000 м ливневой дождь 9/5 <50 м
[Cb cap Ac trans Ci sp]
+27.0 +25.2 90 +39 +41 очень
душно
1007.0 1005.2
12 18.08 штиль 0 12 км мгла 8/3 720 м
[Sc Ac trans Ci fib]
+26.4 +25.4 94 +38 +38 очень
душно
1008.7 1006.9 +32.0
15 18.08 СЗ 1 11 км мгла 8/3 720 м
[Sc Ac trans Ci fib]
+25.7 +25.1 96 +37 +37 очень
душно
1010.9 1009.1
18 18.08 штиль 0 11 км мгла 8/3 720 м
[Sc Ac trans Ci fib]
+25.4 +24.9 97 +36 +36 очень
душно
1010.2 1008.4
21 18.08 штиль 0 10 км дымка 9/3 300 м
[Sc Ac trans Ci sp]
+25.0 +24.2 95 +34 +34 очень
душно
1009.6 1007.8
00 19.08 штиль 0 10 км дымка 9/3 360 м
[Sc Ac lent Ci sp]
+25.3 +24.7 96 +36 +36 очень
душно
1010.8 1009.0 +23.9 3
03 19.08 ЮВ 3 16 км мгла 8/4 570 м
[Cu med, cong Ac trans Ci sp]
+29.6 +26.7 84 +46 +51 опасность
перегрева
1010.9 1009.1
06 19.08 ЮВ 2 16 км мгла 9/5 480 м
[Cb cap Ac trans Ci sp]
+30.6 +27.0 81 +48 +54 опасность
перегрева
1008.8 1007.0
09 19.08 ЮВ 2 12 км слабый ливневой дождь 9/5 480 м
[Cb cap Ac trans Ci sp]
+29.8 +27.1 85 +47 +49 опасность
перегрева
1007.2 1005.5
12 19.08 В 1 12 км мгла {ливн. осадки} 9/3 750 м
[Sc Ac trans Ci sp]
+28.1 +26.2 89 +42 +42 опасность
перегрева
1008.7 1006.9 +32.0
15 19.08 СЗ 1 12 км мгла 9/3 750 м
[Sc Ac lent Ci fib]
+26.6 +25.5 94 +39 +39 очень
душно
1011.0 1009.2
18 19.08 штиль 0 12 км мгла 9/4 300 м
[Sc Ac lent Ci fib]
+25.8 +24.9 95 +37 +37 очень
душно
1010.3 1008.5
21 19.08 Ю 1 10 км дымка 8/1 240 м
[Sc Ac trans Ci fib]
+25.0 +24.3 96 +35 +35 очень
душно
1009.1 1007.3
00 20.08 штиль 0 15 км мгла 8/3 540 м
[Sc Ac trans Ci sp]
+24.6 +23.9 96 +34 +34 очень
душно
1009.7 1007.9 +24.0
03 20.08 Ю 3 18 км мгла 8/3 540 м
[Cu med, cong Ac und Ci sp]
+30.1 +26.5 81 +46 +53 опасность
перегрева
1010.6 1008.8
06 20.08 ЮВ 2 18 км мгла 8/3 540 м
[Cu med, cong Ac und Ci sp]
+32.2 +27.0 74 +50 +59 опасность
перегрева
1007.9 1006.2
09 20.08 В 3 18 км мгла 9/3 540 м
[Cu med, cong Ac und Ci sp]
+31.9 +27.6 78 +51 +53 опасность
перегрева
1005.7 1004.0
12 20.08 С 5 12 км зарница 9/5 480 м
[Cb cap Ac trans Ci sp]
+27.9 +24.4 81 +39 +39 очень
душно
1007.9 1006.1 +33.2
15 20.08 СВ 2 12 км гроза без осадков {дождь} 9/4 480 м
[Cb cap Ac trans Ci sp]
+24.0 +22.7 92 +31 +31 очень
душно
1009.1 1007.3
18 20.08 С 2 10 км мгла 9/4 240 м
[Sc Ac trans Ci sp]
+23.3 +22.6 96 +32 +32 очень
душно
1008.7 1006.9 0.2
21 20.08 штиль 0 7000 м дымка 8/3 120 м
[St Ac lent Ci sp]
+23.5 +22.8 96 +31 +31 очень
душно
1007.6 1005.8
00 21.08 штиль 0 15 км мгла 8/1 600 м
[Cu hum Ac trans Ci sp]
+24.3 +23.4 95 +33 +34 очень
душно
1008.9 1007.1 +23.1 0.2
03 21.08 Ю 3 17 км мгла 8/4 540 м
[Cu hum Ac trans Ci fib]
+29.5 +25.1 77 +43 +48 опасность
перегрева
1009.9 1008.1
06 21.08 Ю 3 15 км осадки на расстоянии 9/5 480 м
[Cb cap Ac trans Ci sp]
+31.9 +25.4 69 +46 +52 опасность
перегрева
1007.6 1005.8
09 21.08 штиль 0 14 км гроза, ливневой дождь 9/5 360 м
[Cu Sc Ac trans Cs]
+24.5 +23.3 93 +33 +35 очень
душно
1006.5 1004.7
12 21.08 Ю 3 12 км зарница {гроза, дождь} 9/4 500 м
[Cb cap Ac lent Cs]
+24.9 +23.2 90 +33 +33 очень
душно
1008.1 1006.3 +32.2 14
15 21.08 Ю 1 12 км мгла 9/3 720 м
[Sc Ac trans Cs]
+24.1 +23.0 94 +32 +32 очень
душно
1009.7 1007.9
18 21.08 штиль 0 12 км мгла 9/3 720 м
[Sc Ac trans Cs]
+24.1 +23.2 95 +32 +32 очень
душно
1009.4 1007.6
21 21.08 С 1 8000 м дымка 9/3 120 м
[St Ac lent Ci sp]
+24.5 +23.7 95 +33 +33 очень
душно
1008.7 1006.9
00 22.08 Ю 2 15 км дымка 9/3 750 м
[Sc Ac lent Ci sp]
+24.2 +23.7 97 +33 +33 очень
душно
1008.5 1006.7 +23.8 14
03 22.08 Ю 5 20 км мгла 9/3 660 м
[Cu hum Ac lent Ci fib]
+29.8 +25.0 75 +43 +46 опасность
перегрева
1009.9 1008.1
06 22.08 Ю 6 20 км мгла 9/4 570 м
[Cu med, cong Ac trans Ci sp]
+32.1 +23.9 62 +44 +47 опасность
перегрева
1007.3 1005.5
09 22.08 Ю 4 20 км мгла 9/3 570 м
[Cu med, cong Ac trans Ci sp]
+31.5 +25.2 69 +45 +47 опасность
перегрева
1005.8 1004.0
12 22.08 ЮВ 1 12 км зарница 8/4 500 м
[Sc Ac trans Ci fib]
+27.8 +25.8 89 +41 +41 опасность
перегрева
1007.9 1006.1 +32.4
15 22.08 ЮВ 2 10 км гроза без осадков 9/5 500 м
[Cb cap Ac trans Ci sp]
+25.9 +22.7 83 +34 +34 очень
душно
1010.3 1008.5
18 22.08 ЮЗ 1 11 км мгла 8/1 720 м
[Sc Ac trans Ci fib]
+25.1 +23.5 91 +34 +34 очень
душно
1009.3 1007.5
21 22.08 ЮЗ 2 12 км мгла 8/1 720 м
[Sc Ac trans Ci sp]
+25.2 +23.6 91 +34 +34 очень
душно
1008.3 1006.5
00 23.08 штиль 0 14 км мгла 9/1 750 м
[Sc Ac trans Ci sp]
+24.9 +23.7 93 +34 +35 очень
душно
1009.8 1008.0 +24.3
03 23.08 Ю 4 16 км мгла 8/1 600 м
[Cu hum Ac trans Ci sp]
+30.1 +23.4 67 +41 +47 опасность
перегрева
1009.6 1007.8
06 23.08 Ю 4 18 км мгла 8/3 570 м
[Cu med, cong Ac trans Ci sp]
+32.8 +23.0 56 +43 +49 опасность
перегрева
1007.2 1005.4
09 23.08 Ю 3 15 км мгла 9/3 540 м
[Cu med, cong Ac trans Ci sp]
+32.2 +24.6 64 +45 +47 опасность
перегрева
1005.7 1003.9
12 23.08 ЮВ 1 12 км зарница 9/4 500 м
[Cb cap Ac trans Ci sp]
+28.3 +25.9 87 +42 +42 опасность
перегрева
1007.9 1006.1 +33.3
15 23.08 ЮВ 1 12 км мгла 9/3 750 м
[Sc Ac trans Ci sp]
+27.3 +25.4 89 +40 +40 очень
душно
1009.9 1008.1
18 23.08 Ю 2 12 км зарница 9/3 500 м
[Cb cap Ac trans Ci sp]
+26.5 +25.1 92 +38 +38 очень
душно
1009.0 1007.2
21 23.08 штиль 0 11 км мгла 9/3 750 м
[Sc Ac trans Ci sp]
+25.4 +24.5 95 +36 +36 очень
душно
1008.6 1006.8
00 24.08 ЮЗ 2 6000 м мгла 9/3 240 м
[St Ac lent Ci sp]
+26.5 +25.2 93 +38 +39 очень
душно
1009.4 1007.6 +25.0
03 24.08 Ю 2 15 км мгла 9/3 600 м
[Cu med, cong Ac trans Ci sp]
+30.4 +25.1 73 +44 +50 опасность
перегрева
1010.4 1008.6

 

Местоположение метеостанции Kuantan (Малайзия): широта 3.78 долгота 103.21 высота над уровнем моря 16 м.

В архиве по умолчанию представлена погода в Kuantan за последнюю неделю. Архивные данные за месяц целиком и за предыдущие месяцы, начиная с января 2011 года, Вы можете получить, выбрав интересующий диапазон дат из раскрывающегося списка и нажав кнопку "Ввод!".

Внимание! Время в таблицах - всемирное. Для получения местного времени необходимо прибавить поправку, которая в Kuantan равна 7 ч.

Смотрите также архив погоды в соседних городах и на ближайших метеорологических станциях:

Погода в Kuala Trengganu (Малайзия) (178 км)
Погода в Mersing (Малайзия) (198 км)
Погода в Kuala Lumpur (Малайзия) (198 км)
Погода в Malacca (Малайзия) (199 км)
Погода в Kuala Lumpur Int Airport (Малайзия) (205 км)
Погода в Cameron Highlands (Малайзия) (218 км)
Погода в Johore Bharu / Senai (Малайзия) (245 км)
Погода в Ipoh (Малайзия) (250 км)
Погода в Singapore (Сингапур) (281 км)
Погода в Sitiawan (Малайзия) (283 км)

Пояснения к столбцам:

Ветер - указаны скорость ветра в м/с - средняя за 10 мин, порывы в срок и между сроками (в фигурных скобках) и направление, откуда дует ветер: С - северный, СВ - северо-восточный, В - восточный, ЮВ - юго-восточный, Ю - южный, ЮЗ - юго-западный, З - западный, СЗ - северо-западный.
Видимость - горизонтальная дальность видимости в метрах или километрах. При видимости от 1 до 10 км при отсутствии осадков обычно наблюдается дымка, при ухудшении видимости до 1 км и менее - туман. В сухую погоду видимость может ухудшаться дымом, пылью или мглою.
Явления - указаны атмосферные явления, наблюдавшиеся в срок или в последний час перед сроком; фигурными скобками обозначены явления, наблюдавшиеся между сроками (за 1-3 часа до срока); квадратными скобками обозначены град или гололедные отложения с указанием их диаметра в мм.
Облачность - указаны через наклонную черту общая и нижняя облачность в баллах и высота нижней границы облаков в метрах; квадратными скобками обозначены формы облаков: Ci - перистые, Cs - перисто-слоистые, Cc - перисто-кучевые, Ac - высококучевые, As - высокослоистые, Sc - слоисто-кучевые, Ns - слоисто-дождевые, Cu - кучевые, Cb - кучево-дождевые. Подробнее классификацию облаков см. в Атласе облаков (PDF).
T - Температура воздуха - температура, измеренная на высоте 2 м над землей.
Td - Температура точки росы - температура, при понижении до которой содержащийся в воздухе водяной пар достигнет насыщения.
f - Относительная влажность воздуха - влажноcть воздуха, измеренная на высоте 2 м над землей.
Te - Эффективная температура - температура, которую ощущает одетый по сезону человек в тени. Характеристика душности погоды. При расчете учитывается влияние влажности воздуха и скорости ветра на теплоощущения человека.
Tes - Эффективная температура на солнце - температура, которую ощущает человек, с поправкой на солнечный нагрев. Характеристика знойности погоды. Зависит от высоты солнца над горизонтом, облачности и скорости ветра. Ночью, в пасмурную погоду, а также при ветре 12 м/с и более поправка равна нулю.
P - Атмосферное давление - приведенное к уровню моря атмосферное давление.
Po - Атмосферное давление - измеренное на уровне метеостанции атмосферное давление.
Tmin - Минимальная температура - минимум температуры воздуха на высоте 2 м над землей.
Tmax - Максимальная температура - максимум температуры воздуха на высоте 2 м над землей.
R - Количество осадков - Количество выпавших осадков за период времени, мм. При наведении курсора мыши на число - период времени, за который выпало указанное количество осадков.
R24 - Количество осадков - Количество выпавших осадков за 24 часа, мм.
S - Снежный покров - Высота снежного покрова, см. При наведении курсора мыши на число - состояние снежного покрова и степень покрытия местности в баллах.